WXM80 ListenWXM80 Stop

You find our weather info also at:

UK Metoffice

WeatherCloud

Weather Underground

Northeastern Weather Network

AWEKAS

Citizen Weather Observer Program (CWOP)

HAMweather, WeatherForYou, PWS Weather


Weather Underground History page Text

Daily Summary for December 11, 2017 Units:  English    Metric   Both
« Previous Day
Next Day »
Daily Weekly Monthly Yearly Custom
  High: Low: Average:
Temperature: TemperatureF °F 32.4 °F 35.7 °F
Dew Point: DewpointF °F 26.4 °F 27.9 °F
Humidity: Humidity % 61 % 73 %
Wind Speed: WindSpeedMPH mph 0.0 mph 2.1 mph
Wind Gust: WindSpeedGustMPH mph - -
Wind:- - WSW
Pressure: PressureIn in 29.95 in -
Precipitation: 0.00 in    
Historical Graphs
 
 
Tabular Data for December 11, 2017
Time Temperature Dew Point Pressure Wind Wind Speed Wind Gust Humidity Rainfall Rate (Hourly)
TemperatureF °F DewpointF °F PressureIn in Calm     Humidity % HourlyPrecipIn in
00:05 35.1 °F 26.6 °F 30.00 in SSW 5.6 mph 8.1 mph 71 % 0.00 in
00:10 35.1 °F 26.6 °F 30.01 in SSW 3.5 mph 6.9 mph 71 % 0.00 in
00:15 35.2 °F 26.7 °F 30.00 in SW 2.8 mph 6.9 mph 71 % 0.00 in
00:20 35.2 °F 26.7 °F 30.00 in West 1.5 mph 4.6 mph 71 % 0.00 in
00:25 35.2 °F 26.7 °F 30.00 in WSW 2.6 mph 6.0 mph 71 % 0.00 in
00:30 35.1 °F 26.6 °F 30.00 in SW 2.4 mph 9.2 mph 71 % 0.00 in
00:31 35.1 °F 26.6 °F 30.00 in SSW 2.5 mph 9.2 mph 71 % 0.00 in
00:46 35.1 °F 26.6 °F 29.99 in SSW 3.3 mph 5.8 mph 71 % 0.00 in
00:51 35.1 °F 26.6 °F 29.99 in SW 4.1 mph 5.8 mph 71 % 0.00 in
01:01 35.1 °F 26.6 °F 29.99 in SW 4.5 mph 5.8 mph 71 % 0.00 in
01:11 35.1 °F 26.6 °F 29.99 in WSW 1.9 mph 3.0 mph 71 % 0.00 in
01:16 35.1 °F 26.6 °F 29.99 in SW 1.3 mph 3.5 mph 71 % 0.00 in
01:21 35.1 °F 27.0 °F 29.99 in SSW 2.2 mph 4.0 mph 72 % 0.00 in
01:26 35.1 °F 27.0 °F 29.99 in WSW 3.5 mph 6.0 mph 72 % 0.00 in
01:31 35.0 °F 26.9 °F 29.99 in SSW 1.9 mph 3.5 mph 72 % 0.00 in
01:36 35.0 °F 26.9 °F 29.99 in WSW 1.1 mph 3.5 mph 72 % 0.00 in
01:41 35.0 °F 26.9 °F 29.99 in SW 0.4 mph 3.5 mph 72 % 0.00 in
01:47 35.0 °F 26.5 °F 29.99 in SSW 2.4 mph 6.9 mph 71 % 0.00 in
01:52 35.0 °F 26.9 °F 29.99 in SSW 3.1 mph 6.9 mph 72 % 0.00 in
01:57 35.0 °F 26.9 °F 29.99 in West 2.5 mph 4.6 mph 72 % 0.00 in
02:07 35.0 °F 26.5 °F 29.99 in SW 2.6 mph 5.8 mph 71 % 0.00 in
02:12 35.0 °F 26.5 °F 29.99 in SW 2.6 mph 5.8 mph 71 % 0.00 in
02:22 35.0 °F 26.5 °F 29.99 in Calm   1.2 mph 71 % 0.00 in
02:27 34.9 °F 26.4 °F 29.99 in SW 2.7 mph 8.1 mph 71 % 0.00 in
02:32 34.9 °F 26.4 °F 29.98 in SW 1.7 mph 3.5 mph 71 % 0.00 in
02:37 34.8 °F 26.7 °F 29.98 in SSW 3.5 mph 4.6 mph 72 % 0.00 in
02:42 34.8 °F 26.7 °F 29.98 in South 2.2 mph 5.8 mph 72 % 0.00 in
02:47 34.7 °F 26.6 °F 29.98 in SSW 0.3 mph 1.2 mph 72 % 0.00 in
02:52 34.7 °F 26.6 °F 29.97 in WSW 1.6 mph 3.5 mph 72 % 0.00 in
02:57 34.7 °F 26.6 °F 29.98 in SSW 0.8 mph 3.5 mph 72 % 0.00 in
03:02 34.6 °F 26.5 °F 29.98 in SSW 2.1 mph 4.6 mph 72 % 0.00 in
03:07 34.6 °F 26.5 °F 29.97 in SSW 1.5 mph 3.5 mph 72 % 0.00 in
03:12 34.5 °F 26.7 °F 29.98 in WSW 0.8 mph 3.5 mph 73 % 0.00 in
03:22 34.4 °F 26.6 °F 29.97 in WSW 1.3 mph 3.5 mph 73 % 0.00 in
03:27 34.4 °F 26.6 °F 29.97 in SSW 1.4 mph 4.0 mph 73 % 0.00 in
03:37 34.4 °F 26.6 °F 29.98 in SW 0.9 mph 2.3 mph 73 % 0.00 in
03:40 34.4 °F 26.6 °F 29.98 in SW 1.3 mph 3.5 mph 73 % 0.00 in
03:45 34.3 °F 26.9 °F 29.97 in SSW 1.3 mph 3.5 mph 74 % 0.00 in
03:55 34.3 °F 26.9 °F 29.98 in SSW 1.7 mph 5.0 mph 74 % 0.00 in
04:05 34.3 °F 26.9 °F 29.98 in SW 0.4 mph 2.3 mph 74 % 0.00 in
04:11 34.3 °F 26.9 °F 29.98 in SW 3.8 mph 5.8 mph 74 % 0.00 in
04:16 34.3 °F 26.9 °F 29.98 in SSW 1.8 mph 4.6 mph 74 % 0.00 in
04:21 34.3 °F 26.9 °F 29.98 in SW 4.1 mph 5.0 mph 74 % 0.00 in
04:31 34.4 °F 27.0 °F 29.98 in SSW 1.5 mph 4.0 mph 74 % 0.00 in
04:37 34.4 °F 27.0 °F 29.98 in SSW 0.4 mph 1.2 mph 74 % 0.00 in
04:42 34.4 °F 27.0 °F 29.98 in SW 1.9 mph 3.5 mph 74 % 0.00 in
04:47 34.5 °F 27.1 °F 29.99 in SW 1.8 mph 3.5 mph 74 % 0.00 in
04:52 34.5 °F 27.1 °F 29.99 in SSW 2.3 mph 5.8 mph 74 % 0.00 in
04:57 34.5 °F 27.1 °F 29.99 in SW 1.8 mph 3.5 mph 74 % 0.00 in
05:02 34.5 °F 27.1 °F 29.99 in SSW 2.2 mph 5.8 mph 74 % 0.00 in
05:07 34.6 °F 27.2 °F 29.99 in WSW 6.9 mph 11.5 mph 74 % 0.00 in
05:12 34.7 °F 26.9 °F 29.99 in West 6.3 mph 9.2 mph 73 % 0.00 in
05:17 34.8 °F 27.0 °F 29.99 in SW 5.3 mph 9.2 mph 73 % 0.00 in
05:22 34.9 °F 27.5 °F 30.00 in WSW 5.1 mph 10.0 mph 74 % 0.00 in
05:27 35.0 °F 27.5 °F 30.00 in SW 5.1 mph 7.0 mph 74 % 0.00 in
05:32 35.0 °F 27.2 °F 29.99 in SW 1.0 mph 4.0 mph 73 % 0.00 in
05:37 35.0 °F 27.2 °F 29.99 in South 5.4 mph 9.2 mph 73 % 0.00 in
05:42 35.0 °F 27.5 °F 29.99 in WSW 4.0 mph 4.6 mph 74 % 0.00 in
05:47 35.1 °F 27.3 °F 30.00 in SW 5.2 mph 7.0 mph 73 % 0.00 in
05:53 35.1 °F 27.6 °F 30.00 in West 6.0 mph 6.9 mph 74 % 0.00 in
05:58 35.1 °F 28.6 °F 30.00 in WNW 3.2 mph 12.7 mph 77 % 0.00 in
06:03 35.0 °F 29.5 °F 30.01 in WSW 7.6 mph 15.0 mph 80 % 0.00 in
06:08 34.8 °F 29.6 °F 30.01 in WSW 4.0 mph 10.4 mph 81 % 0.00 in
06:13 34.7 °F 29.5 °F 30.00 in SSW 5.8 mph 9.2 mph 81 % 0.00 in
06:23 34.3 °F 29.1 °F 30.01 in South 1.1 mph 3.5 mph 81 % 0.00 in
06:28 34.3 °F 29.1 °F 30.01 in SSW 4.4 mph 5.8 mph 81 % 0.00 in
06:33 34.1 °F 28.9 °F 30.01 in SW 2.7 mph 3.5 mph 81 % 0.00 in
06:38 34.0 °F 28.8 °F 30.01 in SSW 3.4 mph 8.1 mph 81 % 0.00 in
06:43 34.0 °F 28.8 °F 30.01 in SSW 4.3 mph 6.9 mph 81 % 0.00 in
06:53 33.8 °F 28.6 °F 30.01 in SSW 1.1 mph 3.5 mph 81 % 0.00 in
07:04 33.5 °F 28.3 °F 30.01 in SW 2.8 mph 5.8 mph 81 % 0.00 in
07:09 33.3 °F 28.4 °F 30.01 in SW 0.7 mph 2.3 mph 82 % 0.00 in
07:14 33.2 °F 28.3 °F 30.00 in SW 1.4 mph 3.5 mph 82 % 0.00 in
07:19 33.0 °F 28.1 °F 30.01 in SW 0.3 mph 2.0 mph 82 % 0.00 in
07:24 32.9 °F 27.7 °F 30.01 in SW 1.0 mph 2.3 mph 81 % 0.00 in
07:35 32.6 °F 27.7 °F 30.01 in SSW 2.4 mph 3.5 mph 82 % 0.00 in
07:40 32.5 °F 27.9 °F 30.01 in SSW 3.3 mph 5.8 mph 83 % 0.00 in
07:45 32.5 °F 27.9 °F 30.01 in SSW 1.2 mph 3.5 mph 83 % 0.00 in
07:50 32.4 °F 28.1 °F 30.01 in SSW 2.4 mph 5.0 mph 84 % 0.00 in
07:55 32.4 °F 28.1 °F 30.01 in SW 2.8 mph 5.8 mph 84 % 0.00 in
08:00 32.4 °F 28.1 °F 30.01 in SSW 1.0 mph 3.5 mph 84 % 0.00 in
08:05 32.4 °F 28.1 °F 30.02 in SW 1.6 mph 3.5 mph 84 % 0.00 in
08:11 32.5 °F 28.5 °F 30.02 in SW 2.6 mph 4.6 mph 85 % 0.00 in
08:16 32.5 °F 28.5 °F 30.03 in SW 1.8 mph 6.0 mph 85 % 0.00 in
08:21 32.6 °F 28.6 °F 30.03 in SSW 3.1 mph 5.8 mph 85 % 0.00 in
08:31 32.8 °F 28.8 °F 30.02 in South 1.8 mph 5.8 mph 85 % 0.00 in
08:36 32.9 °F 28.9 °F 30.03 in SW 0.6 mph 3.5 mph 85 % 0.00 in
08:41 33.0 °F 29.0 °F 30.03 in South 3.4 mph 4.6 mph 85 % 0.00 in
08:51 33.3 °F 29.0 °F 30.03 in SW 5.1 mph 10.4 mph 84 % 0.00 in
08:56 33.4 °F 28.8 °F 30.02 in SW 2.4 mph 10.4 mph 83 % 0.00 in
09:01 33.6 °F 29.0 °F 30.02 in SW 5.1 mph 8.0 mph 83 % 0.00 in
09:12 33.9 °F 29.3 °F 30.02 in SSW 4.1 mph 6.0 mph 83 % 0.00 in
09:32 35.3 °F 29.4 °F 30.02 in SW 3.8 mph 6.9 mph 79 % 0.00 in
09:37 35.6 °F 29.7 °F 30.03 in WSW 6.7 mph 10.4 mph 79 % 0.00 in
09:47 36.4 °F 30.2 °F 30.03 in SW 5.6 mph 11.5 mph 78 % 0.00 in
09:52 36.8 °F 30.3 °F 30.02 in WSW 4.1 mph 8.1 mph 77 % 0.00 in
09:57 37.1 °F 30.6 °F 30.02 in SW 3.2 mph 6.9 mph 77 % 0.00 in
10:02 37.6 °F 30.7 °F 30.03 in SW 2.8 mph 5.8 mph 76 % 0.00 in
10:07 38.0 °F 30.8 °F 30.03 in WSW 4.2 mph 10.0 mph 75 % 0.00 in
10:12 38.2 °F 30.6 °F 30.03 in SW 7.2 mph 10.4 mph 74 % 0.00 in
10:17 38.4 °F 30.5 °F 30.03 in WSW 5.3 mph 8.1 mph 73 % 0.00 in
10:22 38.6 °F 30.7 °F 30.03 in WSW 2.2 mph 6.9 mph 73 % 0.00 in
10:27 38.8 °F 30.2 °F 30.03 in West 2.4 mph 3.5 mph 71 % 0.00 in
10:37 39.0 °F 30.0 °F 30.03 in NW 3.3 mph 9.2 mph 70 % 0.00 in
10:42 39.0 °F 30.0 °F 30.03 in WNW 2.3 mph 8.0 mph 70 % 0.00 in
10:48 39.1 °F 30.1 °F 30.03 in WNW 5.2 mph 9.0 mph 70 % 0.00 in
11:03 38.9 °F 29.9 °F 30.03 in WNW 5.1 mph 11.5 mph 70 % 0.00 in
11:08 38.8 °F 29.8 °F 30.02 in West 7.2 mph 11.5 mph 70 % 0.00 in
11:13 38.7 °F 29.8 °F 30.02 in West 4.2 mph 8.1 mph 70 % 0.00 in
11:23 38.7 °F 29.8 °F 30.02 in West 6.5 mph 11.5 mph 70 % 0.00 in
11:28 38.7 °F 29.8 °F 30.02 in WNW 6.2 mph 12.0 mph 70 % 0.00 in
11:33 38.7 °F 29.4 °F 30.02 in West 7.8 mph 13.8 mph 69 % 0.00 in
11:38 38.7 °F 29.8 °F 30.02 in West 4.7 mph 9.2 mph 70 % 0.00 in
11:48 38.7 °F 30.1 °F 30.01 in West 5.1 mph 8.1 mph 71 % 0.00 in
11:53 38.6 °F 30.0 °F 30.01 in WNW 3.9 mph 6.0 mph 71 % 0.00 in
11:58 38.7 °F 29.4 °F 30.00 in WNW 3.9 mph 9.2 mph 69 % 0.00 in
12:03 38.8 °F 29.5 °F 30.00 in WNW 2.3 mph 5.8 mph 69 % 0.00 in
12:08 38.9 °F 29.6 °F 30.00 in SW 3.6 mph 7.0 mph 69 % 0.00 in
12:13 39.1 °F 29.8 °F 30.00 in SW 4.0 mph 5.8 mph 69 % 0.00 in
12:18 39.3 °F 30.3 °F 30.00 in West 4.6 mph 6.9 mph 70 % 0.00 in
12:23 39.6 °F 30.3 °F 30.00 in West 3.6 mph 3.6 mph 69 % 0.00 in
12:28 39.8 °F 29.7 °F 30.00 in WNW 5.6 mph 10.4 mph 67 % 0.00 in
12:33 39.8 °F 29.7 °F 29.99 in West 3.1 mph 8.1 mph 67 % 0.00 in
12:38 40.0 °F 29.9 °F 29.99 in West 4.2 mph 8.0 mph 67 % 0.00 in
12:44 40.1 °F 30.0 °F 29.98 in North 3.6 mph 6.9 mph 67 % 0.00 in
12:54 40.3 °F 29.8 °F 29.98 in WSW 5.9 mph 9.2 mph 66 % 0.00 in
12:59 40.4 °F 29.6 °F 29.98 in WNW 4.5 mph 6.9 mph 65 % 0.00 in
13:04 40.5 °F 29.7 °F 29.98 in West 4.9 mph 6.9 mph 65 % 0.00 in
13:09 40.5 °F 29.7 °F 29.98 in NW 6.1 mph 8.1 mph 65 % 0.00 in
13:14 40.6 °F 29.7 °F 29.98 in WNW 2.8 mph 3.5 mph 65 % 0.00 in
13:19 40.7 °F 29.8 °F 29.98 in WNW 3.1 mph 6.0 mph 65 % 0.00 in
13:24 40.8 °F 29.9 °F 29.98 in WNW 2.7 mph 5.0 mph 65 % 0.00 in
13:29 40.9 °F 29.7 °F 29.98 in SW 3.9 mph 5.0 mph 64 % 0.00 in
13:34 40.9 °F 29.7 °F 29.98 in WNW 2.7 mph 6.9 mph 64 % 0.00 in
13:44 41.0 °F 29.7 °F 29.98 in NW 4.9 mph 9.2 mph 64 % 0.00 in
13:49 41.0 °F 29.4 °F 29.99 in WNW 0.9 mph 4.6 mph 63 % 0.00 in
13:55 41.1 °F 29.5 °F 29.99 in West 1.7 mph 5.8 mph 63 % 0.00 in
14:00 41.0 °F 28.6 °F 29.99 in WSW 4.9 mph 8.1 mph 61 % 0.00 in
14:05 41.0 °F 28.6 °F 29.99 in WNW 6.0 mph 8.1 mph 61 % 0.00 in
14:10 40.9 °F 28.5 °F 29.99 in WSW 4.9 mph 8.1 mph 61 % 0.00 in
14:15 40.9 °F 28.9 °F 29.98 in West 3.3 mph 5.8 mph 62 % 0.00 in
14:20 40.8 °F 28.8 °F 29.98 in WNW 3.2 mph 6.0 mph 62 % 0.00 in
14:25 40.7 °F 28.7 °F 29.98 in WNW 3.0 mph 5.8 mph 62 % 0.00 in
14:35 40.4 °F 28.4 °F 29.98 in WSW 0.4 mph 3.5 mph 62 % 0.00 in
14:55 40.0 °F 28.4 °F 30.00 in SSW 1.1 mph 4.6 mph 63 % 0.00 in
15:00 39.9 °F 28.3 °F 30.00 in WSW 2.5 mph 4.0 mph 63 % 0.00 in
15:05 39.8 °F 28.2 °F 30.00 in WSW 1.5 mph 3.5 mph 63 % 0.00 in
15:15 39.6 °F 27.6 °F 30.00 in WNW 2.9 mph 4.6 mph 62 % 0.00 in
15:20 39.6 °F 27.6 °F 30.00 in West 0.6 mph 3.5 mph 62 % 0.00 in
15:36 39.4 °F 28.2 °F 30.00 in WNW 3.0 mph 8.0 mph 64 % 0.00 in
15:46 39.3 °F 27.7 °F 30.00 in Calm   1.2 mph 63 % 0.00 in
16:01 39.1 °F 27.9 °F 30.00 in WNW 0.7 mph 2.0 mph 64 % 0.00 in
16:11 38.9 °F 27.8 °F 29.99 in Calm   1.0 mph 64 % 0.00 in
16:16 38.8 °F 28.0 °F 30.00 in WNW 0.4 mph 2.3 mph 65 % 0.00 in
16:26 38.5 °F 27.4 °F 30.00 in Calm   1.2 mph 64 % 0.00 in
16:31 38.4 °F 27.7 °F 30.00 in WNW 1.1 mph 3.5 mph 65 % 0.00 in
16:36 38.4 °F 28.0 °F 29.99 in Calm     66 % 0.00 in
16:41 38.3 °F 27.9 °F 29.99 in Calm     66 % 0.00 in
16:46 38.2 °F 27.5 °F 30.00 in West 3.2 mph 6.9 mph 65 % 0.00 in
16:51 38.1 °F 27.7 °F 30.01 in Calm     66 % 0.00 in
16:56 38.0 °F 27.6 °F 30.00 in Calm     66 % 0.00 in
17:01 37.9 °F 27.5 °F 30.00 in Calm   1.2 mph 66 % 0.00 in
17:06 37.8 °F 27.8 °F 30.00 in WSW 0.1 mph 3.5 mph 67 % 0.00 in
17:11 37.7 °F 28.1 °F 30.00 in West 1.4 mph 3.5 mph 68 % 0.00 in
17:17 37.6 °F 28.0 °F 30.00 in Calm     68 % 0.00 in
17:22 37.5 °F 27.5 °F 30.01 in Calm   1.2 mph 67 % 0.00 in
17:27 37.4 °F 27.4 °F 30.01 in Calm     67 % 0.00 in
17:32 37.3 °F 27.7 °F 30.01 in NNW 0.2 mph   68 % 0.00 in
17:37 37.1 °F 27.9 °F 30.01 in Calm   2.3 mph 69 % 0.00 in
17:42 37.0 °F 28.1 °F 30.01 in NNW 0.4 mph 1.2 mph 70 % 0.00 in
17:47 36.9 °F 28.0 °F 30.01 in Calm   1.2 mph 70 % 0.00 in
17:52 36.8 °F 27.9 °F 30.01 in Calm   1.2 mph 70 % 0.00 in
18:02 36.5 °F 27.6 °F 30.01 in Calm     70 % 0.00 in
18:07 36.3 °F 27.8 °F 30.01 in Calm     71 % 0.00 in
18:12 36.1 °F 27.6 °F 30.01 in NNW 0.8 mph 2.3 mph 71 % 0.00 in
18:17 35.9 °F 27.7 °F 30.02 in NNW 0.6 mph 1.2 mph 72 % 0.00 in
18:22 35.7 °F 27.9 °F 30.02 in WNW 0.2 mph 1.2 mph 73 % 0.00 in
18:27 35.5 °F 27.7 °F 30.02 in WNW 0.1 mph 1.2 mph 73 % 0.00 in
18:32 35.3 °F 27.5 °F 30.02 in Calm     73 % 0.00 in
18:52 34.7 °F 26.9 °F 30.01 in West 0.2 mph 1.2 mph 73 % 0.00 in
18:57 34.6 °F 27.2 °F 30.02 in Calm   1.2 mph 74 % 0.00 in
19:04 34.3 °F 26.9 °F 30.01 in Calm     74 % 0.00 in
19:09 34.2 °F 26.8 °F 30.01 in Calm     74 % 0.00 in
19:14 34.0 °F 26.9 °F 30.01 in West 0.3 mph 1.2 mph 75 % 0.00 in
19:19 33.9 °F 26.8 °F 30.01 in West 0.4 mph 1.2 mph 75 % 0.00 in
19:29 33.6 °F 26.5 °F 30.00 in West 0.4 mph 1.2 mph 75 % 0.00 in
19:34 33.4 °F 26.6 °F 30.00 in Calm   1.2 mph 76 % 0.00 in
19:39 33.2 °F 26.5 °F 30.00 in Calm     76 % 0.00 in
19:44 33.1 °F 26.7 °F 30.01 in West 0.2 mph 1.2 mph 77 % 0.00 in
19:49 33.0 °F 26.6 °F 30.01 in West 0.4 mph 1.2 mph 77 % 0.00 in
19:54 32.9 °F 26.5 °F 30.02 in West 0.6 mph 2.3 mph 77 % 0.00 in
20:04 32.7 °F 26.6 °F 30.02 in West 0.4 mph 2.3 mph 78 % 0.00 in
20:15 32.7 °F 26.6 °F 30.02 in Calm     78 % 0.00 in
20:20 32.7 °F 26.9 °F 30.01 in Calm   1.2 mph 79 % 0.00 in
20:30 32.8 °F 27.0 °F 30.00 in Calm     79 % 0.00 in
20:35 32.8 °F 27.3 °F 30.00 in Calm     80 % 0.00 in
20:40 32.9 °F 27.4 °F 30.01 in West 0.2 mph 1.0 mph 80 % 0.00 in
20:50 33.0 °F 27.5 °F 30.00 in Calm     80 % 0.00 in
20:55 33.1 °F 27.6 °F 30.00 in Calm   1.2 mph 80 % 0.00 in
21:00 33.2 °F 27.7 °F 29.99 in Calm     80 % 0.00 in
21:05 33.3 °F 27.8 °F 29.99 in Calm     80 % 0.00 in
21:10 33.3 °F 27.8 °F 30.00 in West 0.9 mph 2.3 mph 80 % 0.00 in
21:15 33.4 °F 27.9 °F 29.99 in West 0.8 mph 2.3 mph 80 % 0.00 in
21:20 33.5 °F 27.7 °F 29.99 in West 0.1 mph 1.2 mph 79 % 0.00 in
21:25 33.6 °F 27.8 °F 29.99 in West 0.2 mph 2.0 mph 79 % 0.00 in
21:30 33.7 °F 27.9 °F 29.99 in West 2.0 mph 3.5 mph 79 % 0.00 in
21:35 33.7 °F 27.9 °F 29.99 in West 1.2 mph 2.3 mph 79 % 0.00 in
21:45 33.9 °F 27.8 °F 29.99 in Calm     78 % 0.00 in
21:50 33.9 °F 27.8 °F 29.99 in West 0.2 mph 1.0 mph 78 % 0.00 in
21:55 34.0 °F 27.9 °F 29.99 in West 0.1 mph 1.2 mph 78 % 0.00 in
22:05 34.1 °F 28.0 °F 29.99 in Calm     78 % 0.00 in
22:10 34.2 °F 28.1 °F 29.99 in Calm     78 % 0.00 in
22:15 34.2 °F 28.1 °F 29.99 in Calm     78 % 0.00 in
22:21 34.3 °F 28.2 °F 29.99 in Calm     78 % 0.00 in
22:25 34.3 °F 28.2 °F 29.99 in Calm   1.0 mph 78 % 0.00 in
22:31 34.4 °F 28.2 °F 29.99 in Calm   2.0 mph 78 % 0.00 in
22:35 34.5 °F 28.0 °F 29.98 in West 1.0 mph 2.0 mph 77 % 0.00 in
22:45 34.6 °F 28.1 °F 29.98 in Calm   1.0 mph 77 % 0.00 in
22:50 34.7 °F 27.9 °F 29.98 in Calm     76 % 0.00 in
22:56 34.7 °F 27.9 °F 29.98 in Calm   1.0 mph 76 % 0.00 in
23:01 34.8 °F 28.3 °F 29.97 in Calm     77 % 0.00 in
23:06 34.8 °F 28.3 °F 29.97 in Calm     77 % 0.00 in
23:16 35.0 °F 28.5 °F 29.97 in Calm     77 % 0.00 in
23:21 35.0 °F 28.5 °F 29.97 in West 0.1 mph 1.2 mph 77 % 0.00 in
23:26 35.0 °F 27.9 °F 29.96 in Calm     75 % 0.00 in
23:31 35.0 °F 28.2 °F 29.96 in Calm     76 % 0.00 in
23:36 35.0 °F 28.2 °F 29.96 in Calm   1.2 mph 76 % 0.00 in
23:41 35.0 °F 28.2 °F 29.96 in Calm     76 % 0.00 in
23:46 35.0 °F 28.2 °F 29.96 in Calm     76 % 0.00 in
23:51 35.0 °F 28.2 °F 29.95 in Calm     76 % 0.00 in
Crab Meadow Weather
Compliments of Weather Underground - 2.5 mb

Script developed by  Jim McMurry - jmcmurry@mwt.net Adapted for the template by  Wim van der Kuil - Leuven-Template.eu

Weather Terms: Severe Thunderstorm Watch - Conditions are favorable for the development of severe thunderstorms in and close to the watch area. These watches are issued for large areas by the Storm Prediction Center in Norman, Oklahoma, and are usually valid for four to six hours.